When you browse on this site, cookies collect data to enhance your experience and personalize the content and advertising you see.
Visit our Privacy Policy to learn more. By continuing to use the site, you agree to this use of cookies and data.
  • In Österreich
  • Länderverzeichnis
  • Für 7 Tage
  • Wassertemperatur
  • Wetterkarte
  • News
  • Widgets
  • user-avatar
    Anmelden

    Stündliche Wetter Zorya

    Heute, 28 Januar, Dienstag

    Zeit Temperatur Niederschläge Wind Luftdruck Luftfeuchtigkeit
    00:00 -2°C° 0 mm 2 m/S 740 mmHg 80%
    01:00 -1°C° 0 mm 2 m/S 740 mmHg 80%
    02:00 -1°C° 0 mm 2 m/S 739 mmHg 80%
    03:00 -1°C° 0 mm 2 m/S 739 mmHg 79%
    04:00 -1°C° 0 mm 2 m/S 739 mmHg 78%
    05:00 -1°C° 0 mm 2 m/S 739 mmHg 77%
    06:00 -1°C° 0 mm 2 m/S 738 mmHg 79%
    07:00 -1°C° 0 mm 2 m/S 738 mmHg 81%
    08:00 -1°C° 0 mm 2 m/S 738 mmHg 82%
    09:00 0°C° 0 mm 3 m/S 738 mmHg 82%
    10:00 +2°C° 0 mm 3 m/S 737 mmHg 81%
    11:00 +3°C° 0 mm 4 m/S 737 mmHg 80%
    12:00 +4°C° 0 mm 4 m/S 737 mmHg 78%
    13:00 +4°C° 0 mm 4 m/S 736 mmHg 76%
    14:00 +5°C° 0 mm 4 m/S 735 mmHg 74%
    15:00 +4°C° 0 mm 4 m/S 735 mmHg 78%
    16:00 +3°C° 0 mm 4 m/S 734 mmHg 83%
    17:00 +1°C° 0 mm 4 m/S 734 mmHg 87%
    18:00 0°C° 0 mm 4 m/S 734 mmHg 88%
    19:00 0°C° 0 mm 4 m/S 733 mmHg 88%
    20:00 0°C° 0 mm 4 m/S 733 mmHg 89%
    21:00 0°C° 0 mm 4 m/S 732 mmHg 89%
    22:00 0°C° 0 mm 4 m/S 732 mmHg 90%
    23:00 -1°C° 0 mm 4 m/S 731 mmHg 90%

    Morgen, 29 Januar, Mittwoch

    Zeit Temperatur Niederschläge Wind Luftdruck Luftfeuchtigkeit
    00:00 -1°C° 0.1 mm 4 m/S 731 mmHg 90%
    01:00 -1°C° 0.1 mm 4 m/S 730 mmHg 90%
    02:00 0°C° 0.1 mm 4 m/S 730 mmHg 90%
    03:00 -1°C° 0 mm 4 m/S 729 mmHg 91%
    04:00 0°C° 0 mm 3 m/S 728 mmHg 92%
    05:00 0°C° 0 mm 3 m/S 727 mmHg 92%
    06:00 0°C° 0.9 mm 3 m/S 727 mmHg 94%
    07:00 0°C° 0.9 mm 3 m/S 727 mmHg 96%
    08:00 -1°C° 0.9 mm 2 m/S 726 mmHg 98%
    09:00 -2°C° 1.8 mm 4 m/S 726 mmHg 98%
    10:00 -3°C° 1.8 mm 6 m/S 726 mmHg 97%
    11:00 -4°C° 1.8 mm 8 m/S 726 mmHg 97%
    12:00 -2°C° 0.7 mm 8 m/S 727 mmHg 93%
    13:00 -2°C° 0.7 mm 8 m/S 727 mmHg 89%
    14:00 -2°C° 0.7 mm 8 m/S 727 mmHg 85%
    15:00 -2°C° 0.1 mm 7 m/S 727 mmHg 85%
    16:00 -2°C° 0.1 mm 7 m/S 727 mmHg 85%
    17:00 -2°C° 0.1 mm 7 m/S 728 mmHg 85%
    18:00 -2°C° 0.1 mm 7 m/S 728 mmHg 89%
    19:00 -3°C° 0.1 mm 6 m/S 728 mmHg 93%
    20:00 -3°C° 0.1 mm 6 m/S 728 mmHg 96%
    21:00 -3°C° 0.1 mm 7 m/S 728 mmHg 96%
    22:00 -3°C° 0.1 mm 7 m/S 728 mmHg 96%
    23:00 -3°C° 0.1 mm 7 m/S 728 mmHg 96%

    übermorgen, 30 Januar, Donnerstag

    Zeit Temperatur Niederschläge Wind Luftdruck Luftfeuchtigkeit
    00:00 -4°C° 0.3 mm 8 m/S 728 mmHg 96%
    01:00 -2°C° 0.3 mm 8 m/S 729 mmHg 96%
    02:00 -2°C° 0.3 mm 8 m/S 729 mmHg 96%
    03:00 -3°C° 0.5 mm 9 m/S 729 mmHg 95%
    04:00 -3°C° 0.5 mm 10 m/S 729 mmHg 95%
    05:00 -3°C° 0.5 mm 10 m/S 729 mmHg 95%
    06:00 -3°C° 0.2 mm 11 m/S 730 mmHg 94%
    07:00 -3°C° 0.2 mm 11 m/S 730 mmHg 93%
    08:00 -3°C° 0.2 mm 11 m/S 731 mmHg 92%
    09:00 -3°C° 0.1 mm 10 m/S 731 mmHg 91%
    10:00 -2°C° 0.1 mm 10 m/S 731 mmHg 90%
    11:00 -2°C° 0.1 mm 10 m/S 732 mmHg 89%
    12:00 -2°C° 0.3 mm 10 m/S 732 mmHg 90%
    13:00 -2°C° 0.3 mm 10 m/S 732 mmHg 91%
    14:00 -2°C° 0.3 mm 10 m/S 733 mmHg 91%
    15:00 -2°C° 0.2 mm 10 m/S 733 mmHg 92%
    16:00 -3°C° 0.2 mm 10 m/S 734 mmHg 93%
    17:00 -3°C° 0.2 mm 10 m/S 734 mmHg 93%
    18:00 -3°C° 0.2 mm 10 m/S 734 mmHg 92%
    19:00 -3°C° 0.2 mm 9 m/S 735 mmHg 92%
    20:00 -3°C° 0.2 mm 9 m/S 736 mmHg 91%
    21:00 -4°C° 0.1 mm 8 m/S 736 mmHg 88%
    22:00 -3°C° 0.1 mm 7 m/S 736 mmHg 85%
    23:00 -3°C° 0.1 mm 7 m/S 736 mmHg 82%

    31 Januar, Freitag

    Zeit Temperatur Niederschläge Wind Luftdruck Luftfeuchtigkeit
    00:00 -3°C° 0 mm 6 m/S 736 mmHg 84%
    01:00 -2°C° 0 mm 5 m/S 736 mmHg 86%
    02:00 -2°C° 0 mm 5 m/S 736 mmHg 89%
    03:00 -2°C° 0.1 mm 5 m/S 736 mmHg 91%
    04:00 -2°C° 0.1 mm 5 m/S 736 mmHg 94%
    05:00 -3°C° 0.1 mm 6 m/S 736 mmHg 96%
    06:00 -2°C° 0 mm 5 m/S 736 mmHg 95%
    07:00 -2°C° 0 mm 5 m/S 735 mmHg 94%
    08:00 -2°C° 0 mm 5 m/S 735 mmHg 93%
    09:00 -1°C° 0.1 mm 5 m/S 735 mmHg 94%
    10:00 -1°C° 0.1 mm 5 m/S 734 mmHg 95%
    11:00 -1°C° 0.1 mm 5 m/S 734 mmHg 97%
    12:00 -1°C° 0.2 mm 5 m/S 734 mmHg 93%
    13:00 0°C° 0.2 mm 5 m/S 733 mmHg 89%
    14:00 0°C° 0.2 mm 5 m/S 733 mmHg 85%
    15:00 0°C° 0.5 mm 5 m/S 732 mmHg 89%
    16:00 -1°C° 0.5 mm 5 m/S 732 mmHg 93%
    17:00 -1°C° 0.5 mm 5 m/S 731 mmHg 97%
    18:00 -1°C° 0.4 mm 4 m/S 732 mmHg 97%
    19:00 0°C° 0.4 mm 4 m/S 732 mmHg 97%
    20:00 +1°C° 0.4 mm 3 m/S 732 mmHg 97%
    21:00 +1°C° 0 mm 3 m/S 732 mmHg 97%
    22:00 +1°C° 0 mm 3 m/S 732 mmHg 97%
    23:00 +2°C° 0 mm 2 m/S 733 mmHg 97%

    1 Februar, Samstag

    Zeit Temperatur Niederschläge Wind Luftdruck Luftfeuchtigkeit
    00:00 +1°C° 0.3 mm 3 m/S 733 mmHg 97%
    01:00 +2°C° 0.3 mm 3 m/S 733 mmHg 97%
    02:00 +2°C° 0.3 mm 3 m/S 734 mmHg 97%
    03:00 +1°C° 0.1 mm 4 m/S 734 mmHg 96%
    04:00 +3°C° 0.1 mm 4 m/S 734 mmHg 95%
    05:00 +2°C° 0.1 mm 5 m/S 734 mmHg 94%
    06:00 +3°C° 0 mm 4 m/S 735 mmHg 94%
    07:00 +1°C° 0 mm 4 m/S 735 mmHg 94%
    08:00 +1°C° 0 mm 4 m/S 735 mmHg 94%
    09:00 +1°C° 0 mm 4 m/S 735 mmHg 94%
    10:00 +3°C° 0 mm 4 m/S 736 mmHg 93%
    11:00 +4°C° 0 mm 4 m/S 736 mmHg 93%
    12:00 +4°C° 0 mm 4 m/S 736 mmHg 91%
    13:00 +5°C° 0 mm 4 m/S 736 mmHg 89%
    14:00 +6°C° 0 mm 4 m/S 735 mmHg 88%
    15:00 +5°C° 0 mm 4 m/S 735 mmHg 90%
    16:00 +5°C° 0 mm 4 m/S 735 mmHg 92%
    17:00 +5°C° 0 mm 4 m/S 735 mmHg 94%
    18:00 +5°C° 0 mm 4 m/S 735 mmHg 92%
    19:00 +5°C° 0 mm 5 m/S 735 mmHg 90%
    20:00 +5°C° 0 mm 5 m/S 735 mmHg 88%
    21:00 +5°C° 0 mm 5 m/S 735 mmHg 88%
    22:00 +3°C° 0 mm 5 m/S 734 mmHg 88%
    23:00 +3°C° 0 mm 5 m/S 734 mmHg 88%

    2 Februar, Sonntag

    Zeit Temperatur Niederschläge Wind Luftdruck Luftfeuchtigkeit
    00:00 +4°C° 0.4 mm 6 m/S 733 mmHg 90%
    01:00 +4°C° 0.4 mm 6 m/S 733 mmHg 91%
    02:00 +5°C° 0.4 mm 7 m/S 732 mmHg 93%
    03:00 +5°C° 0.5 mm 8 m/S 732 mmHg 91%
    04:00 +5°C° 0.5 mm 8 m/S 732 mmHg 89%
    05:00 +6°C° 0.5 mm 9 m/S 731 mmHg 87%
    06:00 +5°C° 0.3 mm 9 m/S 732 mmHg 86%
    07:00 +5°C° 0.3 mm 9 m/S 732 mmHg 85%
    08:00 +3°C° 0.3 mm 9 m/S 732 mmHg 85%
    09:00 +3°C° 0 mm 9 m/S 733 mmHg 80%
    10:00 +3°C° 0 mm 9 m/S 734 mmHg 74%
    11:00 +3°C° 0 mm 10 m/S 734 mmHg 69%
    12:00 +3°C° 0 mm 9 m/S 735 mmHg 68%
    13:00 +3°C° 0 mm 9 m/S 735 mmHg 67%
    14:00 +4°C° 0 mm 8 m/S 735 mmHg 66%
    15:00 +4°C° 0 mm 7 m/S 735 mmHg 67%
    16:00 +3°C° 0 mm 7 m/S 734 mmHg 68%
    17:00 +3°C° 0 mm 6 m/S 734 mmHg 68%
    18:00 +3°C° 0 mm 6 m/S 734 mmHg 70%
    19:00 +3°C° 0 mm 5 m/S 733 mmHg 72%
    20:00 +3°C° 0 mm 5 m/S 733 mmHg 74%
    21:00 +3°C° 0.3 mm 5 m/S 732 mmHg 80%
    22:00 +2°C° 0.3 mm 5 m/S 731 mmHg 86%
    23:00 +2°C° 0.3 mm 5 m/S 730 mmHg 91%
    Mehr zeigen